Location: Dzierzno
(50.6159°N, 19.2852°E)
Time: 00:14:39
(UTC+00:00)

Cosmos 2100 Rocket - Pass Details

Date: 18 November 2025
Orbit: 954 x 1000 km, 82.9° (Epoch: 05 December)

Event Time Altitude Azimuth Distance (km) Brightness Sun altitude
Rises 15:16:10 0° 194° (SSW) 3,641 7.6 -4.1°
Reaches altitude 10° 15:18:40 10° 196° (SSW) 2,693 7.0 -4.5°
Maximum altitude 15:24:49 74° 281° (WNW) 999 4.3 -5.4°
Drops below altitude 10° 15:30:59 10° 7° (N) 2,696 6.0 -6.2°
Sets 15:33:30 0° 9° (N) 3,645 6.7 -6.6°
